STARLINK-30078, 56841

Orbit data source: Space-Track

STARLINK-30078, 56841 is a payload satellite owned by SpaceX/Seattle (US) in LEO that was launched on Sun, 04 Jun 2023 UTC via an FALCON 9 launch vehicle from the Air Force Eastern Test Range (AFETR). Payload-class satellites include a variety of spacecraft equipped with specific instruments for various scientific and technological missions. These include communications satellites like Starlink; space stations such as the ISS; scientific satellites like the Hubble; Earth observation satellites from companies like Planet Labs, Umbra, and HawkEye 360; GPS; miniature CubeSats for education and research; and military/defense satellites.

Loading next visibility...
Identifier
56841, 2023-079U
Orbit
LEO
Country
Flag of USUS
Related business
Manufacturer
SpaceX/Seattle
Mission
Operational Commercial Communications
Bus & Motor
STARLINK V2M, Unknown motor
Mass
730 kg wet, ~700 kg dry
Launch date (UTC)
2023-06-04 (3 years ago)
Launch vehicle
FALCON 9
Launch site
Air Force Eastern Test Range (AFETR)
Object type
Payload
Rocket body
Debris
Shape & HBR
Box + 2 Pan, 17.7 m
Radar Cross Section
33.884 m², Large (>1 m²)

Expand to show TLE details & history
Last TLE update: 2 days ago

TLE from 2 days ago
0 STARLINK-30078
1 56841U 23079U   26171.38056807 -.00000683  00000-0 -15290-4 0  9999
2 56841  42.9991 199.4191 0001277 283.0634  77.0075 15.27585985169150
Epoch: 2026-06-20T09:08Z
TLE epoch observation values (Epoch: 2026-06-20T09:08:01.081Z)
Latitude
-0.00001°
Longitude
153.81857°
Altitude
482.61 km
Speed
7.626 km/s
True Right ascension
13h 17m 40s
True Declination
0° 00' 00"
Sunlit
Object was in daylight at epoch
Visualization orbit readout
Latitude
Unknown
Longitude
Unknown
Altitude
Unknown
Speed
Unknown
Apparent Right ascension
Unknown
Apparent Declination
Unknown
Sunlit
N/A
Visualization observer readout
Local Sidereal Time
21:23:55
Azimuth
Unknown
Elevation
Unknown
Doppler factor
Unknown
Orbital elements
Apogee altitude
485.853 km
Perigee altitude
484.1 km
Semi-major axis
6,863.114 km
Eccentricity
0.00013
Inclination
42.9991°
RAAN
199.4191°
Arg. of periapsis
283.0634°
True anomaly
77.02176°
Mean anomaly
77.0075°
Eccentric anomaly
77.01463°
Mean motion
3.81734 °/min
Orbital period
94.31 mins
BSTAR
-0.00001529
Loading maneuver chart data...
Computing Atmospheric mass density...
Loading historical data...
Loading historical data...
Loading historical data...
Loading historical data...
Loading historical data...
Loading historical data...
Loading historical data...

Documentation

Showing up to 5 results
|